Regional Weather Roundup
Issued by NWS Midland/Odessa, TX

Skip options and go directly to product.
Home | Oldest Version | Previous Version | Current Version | All | Text Only | Save Text | Print | Product List | Glossary On

Skip product version selection by date and time.   
541
ASUS44 KMAF 190410
RWRMAF
MIDLAND AREA WEATHER ROUNDUP
NATIONAL WEATHER SERVICE MIDLAND TX
1100 PM CDT SAT APR 18 2015

...IN SOUTHWEST TEXAS AND SOUTHEAST NEW MEXICO...

CITY           SKY/WX    TMP DP  RH WIND       PRES   REMARKS
ALPINE         CLEAR     56  19  23 W10       30.02S
ANDREWS        FAIR      63  24  22 SW10      29.82S
ARTESIA        CLEAR     61  32  33 SW13      29.85R
BIG SPRING     CLEAR     64  17  16 SW8       29.82S
CARLSBAD       CLEAR     56  31  38 SW8       29.83R
DRYDEN           N/A     67  32  27 NW10      29.82R
FORT STOCKTON  CLEAR     61  22  22 SW9       29.88R
GUAD PASS      CLEAR     56  21  25 SW8       29.97R
HOBBS          CLEAR     54  36  50 W8        29.85R
MARFA          CLEAR     50  19  29 W7        30.00S
MIDLAND AIRPK  CLEAR     69  21  16 SW9       29.82S
MIDLAND INTL   CLEAR     63  27  25 W7        29.82R
ODESSA         CLEAR     66  21  18 W12       29.83S
PECOS          CLEAR     62  21  21 SW8       29.84S
PRESIDIO       FAIR      64  19  17 MISG      29.88R
SEMINOLE       CLEAR     54  33  43 CALM      29.83S
SNYDER         CLEAR    N/A N/A N/A W7        29.79S
WINK           CLEAR     63  19  18 SW10      29.81S
$$
...OTHER STATIONS IN TEXAS...

CITY           SKY/WX    TMP DP  RH WIND       PRES   REMARKS
ABILENE        CLEAR     59  51  75 S15       29.78F
AMARILLO       PTCLDY    47  40  76 NE7       29.80S
AUSTIN         CLOUDY    58  57  97 E8        29.83F THUNDER
BROWNSVILLE    PTCLDY    68  67  96 CALM      29.83R
CORPUS CHRISTI PTCLDY    70  68  93 S7        29.81R
DALLAS FTW     CLOUDY    60  56  86 N7        29.78F
DEL RIO        CLEAR     70  65  84 S3        29.79R
EL PASO        PTCLDY    71  16  12 W20       29.90R
HOUSTON INT    PTCLDY    66  63  90 W3        29.81R
LUBBOCK        CLEAR     57  33  40 W6        29.79R
SAN ANGELO     CLEAR     58  55  90 S3        29.79R
SAN ANTONIO    MOCLDY    71  66  84 S6        29.84R
WACO           CLOUDY    60  57  89 SE8       29.77F
WICHITA FALLS  NOT AVBL
$$
...OTHER LOCATIONS IN NEW MEXICO...

CITY           SKY/WX    TMP DP  RH WIND       PRES   REMARKS
ALAMAGORDO     CLEAR     57  25  28 N7        29.91R
ALBUQUERQUE    PTCLDY    55  24  30 N5        29.97S
CANNON AFB     NOT AVBL
CLOVIS         CLEAR     52  19  28 W12       29.82S
HOLLOMAN AFB   CLEAR     58  26  28 NW8       29.89R
ROSWELL        CLEAR     60  33  36 W12       29.84R
RUIDOSO        PTCLDY    50  25  37 NW12G21   30.00R
SANTA FE       CLOUDY    45  31  58 W5        29.96R
TRUTH OR CONSE CLEAR     57  24  28 W9        29.95R
TUCUMCARI      PTCLDY    49  25  39 N12       29.82R
$$

USA.gov is the U.S. government's official web portal to all federal, state and local government web resources and services.